Regional Weather Roundup
Issued by NWS

Home | Current Version | Previous Version | Text Only | Print | Product List | Glossary Off
Versions: 1 2 3 4 5 6 7 8 9 10 11 12 13 14 15 16 17 18 19 20 21 22 23 24 25 26 27 28 29 30 31 32 33 34 35 36 37 38 39 40 41 42 43 44 45 46 47 48 49 50

356
ASUS44 KJAN 291903
RWRMS

MISSISSIPPI HOURLY WEATHER ROUNDUP
NATIONAL WEATHER SERVICE JACKSON MS
100 PM CST THU JAN 29 2015

NOTE: "FAIR: INDICATES FEW OR NO CLOUDS BELOW 12,000 FEET WITH NO
SIGNIFICANT WEATHER AND/OR OBSTRUCTIONS TO VISIBILITY.

MSZ001>002-007>008-010>013-018>021-025>028-034>036-292000-
NORTHWEST MISSISSIPPI

CITY           SKY/WX    TMP DP  RH WIND       PRES   REMARKS
CLARKSDALE     FAIR      64  48  55 W12       30.12F
CLEVELAND      FAIR      68  52  56 W13       30.12F
GREENWOOD      MOSUNNY   68  50  52 W8        30.13F
GREENVILLE     MOSUNNY   69  49  48 W12       30.12F
GRENADA        FAIR      66  48  52 W10G17    30.11F
OLIVE BRANCH   PTSUNNY   61  46  59 W10G16    30.10F
OXFORD         FAIR      61  46  59 W9G16     30.12F
TUNICA         CLOUDY    63  45  51 NW12      30.12F
$$

MSZ003>006-009-014>017-022>024-029>033-037>039-292000-
NORTHEAST MISSISSIPPI

CITY           SKY/WX    TMP DP  RH WIND       PRES   REMARKS
COLUMBUS AFB   CLOUDY    68  46  45 SW15      30.10F
CORINTH        FAIR      64  46  52 W9        30.06F
GOLDN TRIANGLE PTSUNNY   66  48  52 SW9G18    30.11F
STARKVILLE     MOCLDY    66  48  52 SW9       30.11F
TUPELO         CLOUDY    65  46  50 W13       30.09F
$$

MSZ040-058-292000-
CENTRAL MISSISSIPPI

CITY           SKY/WX    TMP DP  RH WIND       PRES   REMARKS
JACKSON INTL   MOSUNNY   74  47  38 SW15G28   30.14F
JACKSON HAWKNS SUNNY     73  47  39 W17G25    30.14F
MERIDIAN KEY   SUNNY     70  48  45 SW16G24   30.14F
MERIDIAN NAS   MOSUNNY   72  49  44 VRB7G22   30.14F
RAYMOND        FAIR      73  68  83 SW17G25   30.14F
VICKSBURG      MOSUNNY   70  52  52 W9        30.16F
$$

MSZ059>079-292000-
SOUTH MISSISSIPPI

CITY           SKY/WX    TMP DP  RH WIND       PRES   REMARKS
BROOKHAVEN     FAIR      73  52  46 W14       30.18F
HATTIESBURG    SUNNY     74  53  48 SW9       30.19F
MCCOMB         SUNNY     73  54  51 W12       30.19F
NATCHEZ        SUNNY     70  52  52 W14G21    30.19F
PINE BELT      SUNNY     72  52  49 SW9G20    30.19F
$$

MSZ080>082-292000-
COASTAL MISSISSIPPI

CITY           SKY/WX    TMP DP  RH WIND       PRES   REMARKS
BAY ST LOUIS   MOSUNNY   72  48  43 S12       30.23F
BILOXI         SUNNY     69  53  57 SW9       30.24F
PASCAGOULA     SUNNY     69  53  56 SW9       30.24F
GULFPORT       SUNNY     68  52  56 S8        30.23F
$$



USA.gov is the U.S. government's official web portal to all federal, state and local government web resources and services.